Home   Weather   Ostrava   Past weeks

Flag for Czech Republic Past Weather in Ostrava, Czech Republic — Yesterday and Last 2 Weeks

Now
71 °F

Scattered clouds.


Feels Like: 77 °F
Forecast: 60 / 82 °F
Wind: 9 mph from Southwest

Location: Ostrava / Mosnov

Current Time: May 29, 2017 at 11:37:48 am

Latest Report: May 29, 2017 at 10:00 am


Visibility: 22 mi

Pressure: 30.04 "Hg

Humidity: 44%

Dew Point: 48 °F

Location of OstravaLocation

Past Weather in Ostrava — Graph

°F

Ostrava Temperature Yesterday

Maximum temperature yesterday: 76 °F (at 4:00 pm)
Minimum temperature yesterday: 46 °F (at 5:00 am)
Average temperature yesterday: 63 °F

High & Low Weather Summary for the Past Weeks

 TemperatureHumidityPressure
High81 °F (May 19, 4:00 pm)96% (May 16, 5:00 am)30.42 "Hg (May 16, 5:00 am)
Low44 °F (May 17, 4:00 am)30% (May 19, 4:00 pm)29.82 "Hg (May 19, 6:00 pm)
Average61 °F68%30.14 "Hg
* Reported May 14 10:00 am — May 29 10:00 am, Ostrava. Weather by CustomWeather, © 2017

Note: Actual official high and low records may vary slightly from our data, if they occured in-between our weather recording intervals... More about our weather records

Advertising

Ostrava Weather History for the Previous 24 Hours

Scroll right to see more
 ConditionsComfort  
Time TempWeatherWind HumidityBarometerVisibility
10:00 am
Mon, May 29
71 °FScattered clouds.9 mph44%30.04 "Hg22 mi
9:00 am69 °FScattered clouds.10 mph46%30.05 "Hg22 mi
8:00 am64 °FScattered clouds.3 mph62%30.07 "Hg22 mi
7:00 am58 °FScattered clouds.3 mph74%30.07 "Hg22 mi
6:00 am53 °FScattered clouds.5 mph79%30.09 "Hg22 mi
5:00 am53 °FScattered clouds.3 mph78%30.10 "Hg19 mi
4:00 am54 °FPassing clouds.3 mph74%30.10 "Hg16 mi
3:00 am54 °FPassing clouds.3 mph75%30.12 "Hg16 mi
2:00 am55 °FClear.3 mph76%30.13 "Hg19 mi
1:00 am58 °FPassing clouds.3 mph68%30.14 "Hg19 mi
12:00 am61 °FPassing clouds.2 mph62%30.15 "Hg19 mi
11:00 pm
Sun, May 28
60 °FPassing clouds.2 mph68%30.14 "Hg19 mi
10:00 pm64 °FPassing clouds.3 mph59%30.14 "Hg22 mi
9:00 pm67 °FPassing clouds.3 mph51%30.13 "Hg25 mi
8:00 pm70 °FPassing clouds.5 mph49%30.13 "Hg25 mi
7:00 pm75 °FPassing clouds.3 mph45%30.13 "Hg28 mi
6:00 pm76 °FPassing clouds.5 mph40%30.14 "Hg28 mi
5:00 pm76 °FPassing clouds.5 mph40%30.15 "Hg28 mi
4:00 pm76 °FPassing clouds.3 mph42%30.16 "Hg28 mi
3:00 pm75 °FSunny.3 mph40%30.18 "Hg25 mi
2:00 pm74 °FSunny.N/A39%30.20 "Hg25 mi
1:00 pm73 °FSunny.N/A40%30.22 "Hg25 mi
12:00 pm72 °FSunny.3 mph41%30.22 "Hg25 mi
11:00 am70 °FSunny.3 mph46%30.23 "Hg25 mi
Weather by CustomWeather, © 2017

See weather overviewHow to use our weather pages